Time,TemperatureF,DewpointF,PressureIn,WindDirection,WindDirectionDegrees,WindSpeedMPH,WindSpeedGustMPH,Humidity,HourlyPrecipIn,Conditions,Clouds,dailyrainin,SoftwareType,DateUTC
2013-01-08 00:00:00,12.6,10.2,30.35,North,355,0.0,0.0,90,0.00,CLR,,0.00,WeatherDisplay:10.37,2013-01-08 05:00:00,
2013-01-08 00:05:00,12.5,10.1,30.34,North,355,0.0,0.0,90,0.00,CLR,,0.00,WeatherDisplay:10.37,2013-01-08 05:05:00,
2013-01-08 00:10:00,12.3,9.9,30.34,North,355,0.0,0.0,90,0.00,CLR,,0.00,WeatherDisplay:10.37,2013-01-08 05:10:00,
2013-01-08 00:15:00,12.3,10.2,30.34,North,355,0.0,0.0,91,0.00,CLR,,0.00,WeatherDisplay:10.37,2013-01-08 05:15:00,
2013-01-08 00:20:00,12.2,10.1,30.34,North,355,0.0,0.0,91,0.00,CLR,,0.00,WeatherDisplay:10.37,2013-01-08 05:20:00,
2013-01-08 00:25:00,12.2,10.1,30.34,North,355,0.0,0.0,91,0.00,CLR,,0.00,WeatherDisplay:10.37,2013-01-08 05:25:00,
2013-01-08 00:30:00,12.2,10.1,30.34,North,355,0.0,0.0,91,0.00,CLR,,0.00,WeatherDisplay:10.37,2013-01-08 05:30:00,
2013-01-08 00:35:00,12.1,10.0,30.34,North,355,0.0,0.0,91,0.00,CLR,,0.00,WeatherDisplay:10.37,2013-01-08 05:35:00,
2013-01-08 00:40:00,12.0,9.9,30.33,North,355,0.0,0.0,91,0.00,CLR,,0.00,WeatherDisplay:10.37,2013-01-08 05:40:00,
2013-01-08 00:45:00,12.0,9.9,30.34,North,355,0.0,0.0,91,0.00,CLR,,0.00,WeatherDisplay:10.37,2013-01-08 05:45:00,
2013-01-08 00:50:00,12.0,9.9,30.33,North,355,0.0,0.0,91,0.00,CLR,,0.00,WeatherDisplay:10.37,2013-01-08 05:50:00,
2013-01-08 00:55:00,11.9,9.8,30.33,North,355,0.0,0.0,91,0.00,CLR,,0.00,WeatherDisplay:10.37,2013-01-08 05:55:00,
2013-01-08 01:00:00,11.8,9.7,30.33,North,355,0.0,0.0,91,0.00,CLR,,0.00,WeatherDisplay:10.37,2013-01-08 06:00:00,
2013-01-08 01:05:00,11.8,9.7,30.33,North,355,0.0,0.0,91,0.00,CLR,,0.00,WeatherDisplay:10.37,2013-01-08 06:05:00,
2013-01-08 01:10:00,11.7,9.6,30.33,North,355,0.0,0.0,91,0.00,CLR,,0.00,WeatherDisplay:10.37,2013-01-08 06:10:00,
2013-01-08 01:15:00,11.7,9.6,30.33,North,355,0.0,0.0,91,0.00,CLR,,0.00,WeatherDisplay:10.37,2013-01-08 06:15:00,
2013-01-08 01:20:00,11.6,9.2,30.33,North,355,0.0,0.0,90,0.00,CLR,,0.00,WeatherDisplay:10.37,2013-01-08 06:20:00,
2013-01-08 01:25:00,11.6,9.2,30.33,North,355,0.0,0.0,90,0.00,CLR,,0.00,WeatherDisplay:10.37,2013-01-08 06:25:00,
2013-01-08 01:30:00,11.5,9.1,30.33,North,355,0.0,0.0,90,0.00,CLR,,0.00,WeatherDisplay:10.37,2013-01-08 06:30:00,
2013-01-08 01:35:00,11.4,9.1,30.33,North,355,0.0,0.0,90,0.00,CLR,,0.00,WeatherDisplay:10.37,2013-01-08 06:35:00,
2013-01-08 01:40:00,11.4,9.0,30.33,North,355,0.0,0.0,90,0.00,CLR,,0.00,WeatherDisplay:10.37,2013-01-08 06:40:00,
2013-01-08 01:45:00,11.3,8.9,30.33,North,355,0.0,0.0,90,0.00,CLR,,0.00,WeatherDisplay:10.37,2013-01-08 06:45:00,
2013-01-08 01:50:00,11.2,8.8,30.33,North,355,0.0,0.0,90,0.00,CLR,,0.00,WeatherDisplay:10.37,2013-01-08 06:50:00,
2013-01-08 01:55:00,11.2,8.8,30.33,North,355,0.0,0.0,90,0.00,CLR,,0.00,WeatherDisplay:10.37,2013-01-08 06:55:00,
2013-01-08 02:00:00,11.1,8.7,30.33,North,355,0.0,0.0,90,0.00,CLR,,0.00,WeatherDisplay:10.37,2013-01-08 07:00:00,
2013-01-08 02:05:00,11.1,8.7,30.33,North,355,0.0,0.0,90,0.00,CLR,,0.00,WeatherDisplay:10.37,2013-01-08 07:05:00,
2013-01-08 02:10:00,11.0,8.6,30.33,North,355,0.0,0.0,90,0.00,CLR,,0.00,WeatherDisplay:10.37,2013-01-08 07:10:00,
2013-01-08 02:15:00,11.0,8.6,30.33,North,355,0.0,0.0,90,0.00,CLR,,0.00,WeatherDisplay:10.37,2013-01-08 07:15:00,
2013-01-08 02:20:00,10.9,8.5,30.33,North,355,0.0,0.0,90,0.00,CLR,,0.00,WeatherDisplay:10.37,2013-01-08 07:20:00,
2013-01-08 02:25:00,10.8,8.4,30.32,North,355,0.0,0.0,90,0.00,CLR,,0.00,WeatherDisplay:10.37,2013-01-08 07:25:00,
2013-01-08 02:30:00,10.7,8.3,30.32,North,355,0.0,0.0,90,0.00,CLR,,0.00,WeatherDisplay:10.37,2013-01-08 07:30:00,
2013-01-08 02:35:00,10.7,8.3,30.32,North,355,0.0,0.0,90,0.00,CLR,,0.00,WeatherDisplay:10.37,2013-01-08 07:35:00,
2013-01-08 02:40:00,10.6,8.3,30.32,North,355,0.0,0.0,90,0.00,CLR,,0.00,WeatherDisplay:10.37,2013-01-08 07:40:00,
2013-01-08 02:45:00,10.7,8.6,30.32,North,355,0.0,0.0,91,0.00,CLR,,0.00,WeatherDisplay:10.37,2013-01-08 07:45:00,
2013-01-08 02:50:00,10.6,8.5,30.32,North,355,0.0,0.0,91,0.00,CLR,,0.00,WeatherDisplay:10.37,2013-01-08 07:50:00,
2013-01-08 02:55:00,10.6,8.5,30.31,North,355,0.0,0.0,91,0.00,CLR,,0.00,WeatherDisplay:10.37,2013-01-08 07:55:00,
2013-01-08 03:00:00,10.5,8.4,30.31,North,355,0.0,0.0,91,0.00,CLR,,0.00,WeatherDisplay:10.37,2013-01-08 08:00:00,
2013-01-08 03:05:00,10.5,8.1,30.31,North,355,0.0,0.0,90,0.00,CLR,,0.00,WeatherDisplay:10.37,2013-01-08 08:05:00,
2013-01-08 03:10:00,10.4,8.0,30.31,North,355,0.0,0.0,90,0.00,CLR,,0.00,WeatherDisplay:10.37,2013-01-08 08:10:00,
2013-01-08 03:15:00,10.4,8.0,30.31,North,355,0.0,0.0,90,0.00,CLR,,0.00,WeatherDisplay:10.37,2013-01-08 08:15:00,
2013-01-08 03:20:00,10.3,8.0,30.31,North,355,0.0,0.0,90,0.00,CLR,,0.00,WeatherDisplay:10.37,2013-01-08 08:20:00,
2013-01-08 03:25:00,10.2,7.9,30.31,North,355,0.0,0.0,90,0.00,CLR,,0.00,WeatherDisplay:10.37,2013-01-08 08:25:00,
2013-01-08 03:30:00,10.2,7.8,30.31,North,355,0.0,0.0,90,0.00,CLR,,0.00,WeatherDisplay:10.37,2013-01-08 08:30:00,
2013-01-08 03:35:00,10.1,7.8,30.30,North,355,0.0,0.0,90,0.00,CLR,,0.00,WeatherDisplay:10.37,2013-01-08 08:35:00,
2013-01-08 03:40:00,10.0,7.7,30.30,North,355,0.0,0.0,90,0.00,CLR,,0.00,WeatherDisplay:10.37,2013-01-08 08:40:00,
2013-01-08 03:45:00,10.0,7.6,30.30,North,355,0.0,0.0,90,0.00,CLR,,0.00,WeatherDisplay:10.37,2013-01-08 08:45:00,
2013-01-08 03:50:00,9.9,7.6,30.30,North,355,0.0,0.0,90,0.00,CLR,,0.00,WeatherDisplay:10.37,2013-01-08 08:50:00,
2013-01-08 03:55:00,9.9,7.5,30.30,North,355,0.0,0.0,90,0.00,CLR,,0.00,WeatherDisplay:10.37,2013-01-08 08:55:00,
2013-01-08 04:00:00,9.9,7.6,30.30,North,355,0.0,0.0,90,0.00,CLR,,0.00,WeatherDisplay:10.37,2013-01-08 09:00:00,
2013-01-08 04:05:00,9.9,7.6,30.30,North,355,0.0,0.0,90,0.00,CLR,,0.00,WeatherDisplay:10.37,2013-01-08 09:05:00,
2013-01-08 04:10:00,9.8,7.5,30.29,North,355,0.0,0.0,90,0.00,CLR,,0.00,WeatherDisplay:10.37,2013-01-08 09:10:00,
2013-01-08 04:15:00,9.8,7.5,30.29,North,355,0.0,0.0,90,0.00,CLR,,0.00,WeatherDisplay:10.37,2013-01-08 09:15:00,
2013-01-08 04:20:00,9.8,7.4,30.29,North,355,0.0,0.0,90,0.00,CLR,,0.00,WeatherDisplay:10.37,2013-01-08 09:20:00,
2013-01-08 04:25:00,9.7,7.3,30.29,North,355,0.0,0.0,90,0.00,CLR,,0.00,WeatherDisplay:10.37,2013-01-08 09:25:00,
2013-01-08 04:30:00,9.6,7.3,30.29,North,355,0.0,0.0,90,0.00,CLR,,0.00,WeatherDisplay:10.37,2013-01-08 09:30:00,
2013-01-08 04:35:00,9.6,7.3,30.29,North,355,0.0,0.0,90,0.00,CLR,,0.00,WeatherDisplay:10.37,2013-01-08 09:35:00,
2013-01-08 04:40:00,9.6,7.3,30.29,North,355,0.0,0.0,90,0.00,CLR,,0.00,WeatherDisplay:10.37,2013-01-08 09:40:00,
2013-01-08 04:45:00,9.5,7.2,30.28,North,355,0.0,0.0,90,0.00,CLR,,0.00,WeatherDisplay:10.37,2013-01-08 09:45:00,
2013-01-08 04:50:00,9.5,7.2,30.28,North,355,0.0,0.0,90,0.00,CLR,,0.00,WeatherDisplay:10.37,2013-01-08 09:50:00,
2013-01-08 04:55:00,9.4,7.1,30.28,North,355,0.0,0.0,90,0.00,CLR,,0.00,WeatherDisplay:10.37,2013-01-08 09:55:00,
2013-01-08 05:00:00,9.4,7.1,30.28,North,355,0.0,0.0,90,0.00,CLR,,0.00,WeatherDisplay:10.37,2013-01-08 10:00:00,
2013-01-08 05:05:00,9.4,7.1,30.28,North,355,0.0,0.0,90,0.00,CLR,,0.00,WeatherDisplay:10.37,2013-01-08 10:05:00,
2013-01-08 05:10:00,9.4,7.1,30.28,North,355,0.0,0.0,90,0.00,CLR,,0.00,WeatherDisplay:10.37,2013-01-08 10:10:00,
2013-01-08 05:15:00,9.4,7.3,30.28,North,355,0.0,0.0,91,0.00,CLR,,0.00,WeatherDisplay:10.37,2013-01-08 10:15:00,
2013-01-08 05:20:00,9.6,7.5,30.28,North,355,0.0,0.0,91,0.00,CLR,,0.00,WeatherDisplay:10.37,2013-01-08 10:20:00,
2013-01-08 05:25:00,9.7,7.6,30.28,North,355,0.0,0.0,91,0.00,CLR,,0.00,WeatherDisplay:10.37,2013-01-08 10:25:00,
2013-01-08 05:30:00,9.9,7.8,30.28,North,355,0.0,0.0,91,0.00,CLR,,0.00,WeatherDisplay:10.37,2013-01-08 10:30:00,
2013-01-08 05:35:00,10.0,7.9,30.28,North,355,0.0,0.0,91,0.00,CLR,,0.00,WeatherDisplay:10.37,2013-01-08 10:35:00,
2013-01-08 05:40:00,10.1,8.0,30.28,North,355,0.0,0.0,91,0.00,CLR,,0.00,WeatherDisplay:10.37,2013-01-08 10:40:00,
2013-01-08 05:45:00,10.1,7.7,30.28,North,355,0.0,0.0,90,0.00,CLR,,0.00,WeatherDisplay:10.37,2013-01-08 10:45:00,
2013-01-08 05:50:00,9.9,7.6,30.28,North,355,0.0,0.0,90,0.00,CLR,,0.00,WeatherDisplay:10.37,2013-01-08 10:50:00,
2013-01-08 05:55:00,9.8,7.2,30.28,North,355,0.0,0.0,89,0.00,CLR,,0.00,WeatherDisplay:10.37,2013-01-08 10:55:00,
2013-01-08 06:00:00,9.7,7.4,30.28,North,355,0.0,0.0,90,0.00,CLR,,0.00,WeatherDisplay:10.37,2013-01-08 11:00:00,
2013-01-08 06:05:00,9.7,7.4,30.28,North,355,0.0,0.0,90,0.00,CLR,,0.00,WeatherDisplay:10.37,2013-01-08 11:05:00,
2013-01-08 06:10:00,9.8,7.7,30.28,North,355,0.0,0.0,91,0.00,CLR,,0.00,WeatherDisplay:10.37,2013-01-08 11:10:00,
2013-01-08 06:15:00,9.9,7.8,30.28,North,355,0.0,0.0,91,0.00,CLR,,0.00,WeatherDisplay:10.37,2013-01-08 11:15:00,
2013-01-08 06:20:00,10.0,7.9,30.28,North,355,0.0,0.0,91,0.00,CLR,,0.00,WeatherDisplay:10.37,2013-01-08 11:20:00,
2013-01-08 06:25:00,10.0,7.9,30.28,North,355,0.0,0.0,91,0.00,CLR,,0.00,WeatherDisplay:10.37,2013-01-08 11:25:00,
2013-01-08 06:30:00,9.9,7.6,30.28,North,355,0.0,0.0,90,0.00,CLR,,0.00,WeatherDisplay:10.37,2013-01-08 11:30:00,
2013-01-08 06:35:00,9.8,7.2,30.28,North,355,0.0,0.0,89,0.00,CLR,,0.00,WeatherDisplay:10.37,2013-01-08 11:35:00,
2013-01-08 06:40:00,9.7,7.4,30.28,North,355,0.0,0.0,90,0.00,CLR,,0.00,WeatherDisplay:10.37,2013-01-08 11:40:00,
2013-01-08 06:45:00,9.7,7.4,30.28,North,355,0.0,0.0,90,0.00,CLR,,0.00,WeatherDisplay:10.37,2013-01-08 11:45:00,
2013-01-08 06:50:00,9.8,7.7,30.28,North,355,0.0,0.0,91,0.00,CLR,,0.00,WeatherDisplay:10.37,2013-01-08 11:50:00,
2013-01-08 06:55:00,9.9,7.8,30.28,North,355,0.0,0.0,91,0.00,CLR,,0.00,WeatherDisplay:10.37,2013-01-08 11:55:00,
2013-01-08 07:00:00,10.1,8.0,30.28,North,355,0.0,0.0,91,0.00,CLR,,0.00,WeatherDisplay:10.37,2013-01-08 12:00:00,
2013-01-08 07:05:00,10.2,8.1,30.28,North,355,0.0,0.0,91,0.00,CLR,,0.00,WeatherDisplay:10.37,2013-01-08 12:05:00,
2013-01-08 07:10:00,10.3,8.2,30.28,North,355,0.0,0.0,91,0.00,CLR,,0.00,WeatherDisplay:10.37,2013-01-08 12:10:00,
2013-01-08 07:15:00,10.4,8.3,30.29,North,355,0.0,0.0,91,0.00,CLR,,0.00,WeatherDisplay:10.37,2013-01-08 12:15:00,
2013-01-08 07:20:00,10.4,8.3,30.29,North,355,0.0,0.0,91,0.00,CLR,,0.00,WeatherDisplay:10.37,2013-01-08 12:20:00,
2013-01-08 07:25:00,10.5,8.4,30.29,North,355,0.0,0.0,91,0.00,CLR,,0.00,WeatherDisplay:10.37,2013-01-08 12:25:00,
2013-01-08 07:30:00,10.5,8.1,30.29,North,355,0.0,0.0,90,0.00,CLR,,0.00,WeatherDisplay:10.37,2013-01-08 12:30:00,
2013-01-08 07:35:00,10.6,8.2,30.30,North,355,0.0,0.0,90,0.00,CLR,,0.00,WeatherDisplay:10.37,2013-01-08 12:35:00,
2013-01-08 07:40:00,10.7,8.6,30.30,North,355,0.0,0.0,91,0.00,CLR,,0.00,WeatherDisplay:10.37,2013-01-08 12:40:00,
2013-01-08 07:45:00,10.8,8.7,30.30,North,355,0.0,0.0,91,0.00,CLR,,0.00,WeatherDisplay:10.37,2013-01-08 12:45:00,
2013-01-08 07:50:00,10.9,8.5,30.30,North,355,0.0,0.0,90,0.00,CLR,,0.00,WeatherDisplay:10.37,2013-01-08 12:50:00,
2013-01-08 07:55:00,10.9,8.5,30.30,North,355,0.0,0.0,90,0.00,CLR,,0.00,WeatherDisplay:10.37,2013-01-08 12:55:00,
2013-01-08 08:00:00,11.0,8.6,30.30,North,355,0.0,0.0,90,0.00,CLR,,0.00,WeatherDisplay:10.37,2013-01-08 13:00:00,
2013-01-08 08:05:00,11.1,8.7,30.31,North,1,0.0,0.0,90,0.00,CLR,,0.00,WeatherDisplay:10.37,2013-01-08 13:05:00,
2013-01-08 08:10:00,11.2,8.8,30.31,North,5,0.0,0.0,90,0.00,CLR,,0.00,WeatherDisplay:10.37,2013-01-08 13:10:00,
2013-01-08 08:15:00,11.3,8.9,30.31,North,5,0.0,0.0,90,0.00,CLR,,0.00,WeatherDisplay:10.37,2013-01-08 13:15:00,
2013-01-08 08:20:00,11.6,9.5,30.31,North,357,0.0,0.0,91,0.00,CLR,,0.00,WeatherDisplay:10.37,2013-01-08 13:20:00,
2013-01-08 08:25:00,12.0,10.1,30.31,South,184,0.0,0.0,92,0.00,CLR,,0.00,WeatherDisplay:10.37,2013-01-08 13:25:00,
2013-01-08 08:30:00,12.5,10.6,30.31,South,180,0.0,0.0,92,0.00,CLR,,0.00,WeatherDisplay:10.37,2013-01-08 13:30:00,
2013-01-08 08:35:00,13.0,11.1,30.31,South,183,0.0,0.0,92,0.00,CLR,,0.00,WeatherDisplay:10.37,2013-01-08 13:35:00,
2013-01-08 08:40:00,13.7,12.0,30.31,South,174,0.0,0.0,93,0.00,CLR,,0.00,WeatherDisplay:10.37,2013-01-08 13:40:00,
2013-01-08 08:45:00,14.8,13.4,30.31,SSE,163,1.0,4.0,94,0.00,CLR,,0.00,WeatherDisplay:10.37,2013-01-08 13:45:00,
2013-01-08 08:50:00,16.1,14.7,30.31,SSE,151,0.0,0.0,94,0.00,CLR,,0.00,WeatherDisplay:10.37,2013-01-08 13:50:00,
2013-01-08 08:55:00,17.3,16.1,30.31,SE,144,0.0,0.0,95,0.00,CLR,,0.00,WeatherDisplay:10.37,2013-01-08 13:55:00,
2013-01-08 09:00:00,18.5,17.3,30.31,SSE,157,0.0,0.0,95,0.00,CLR,,0.00,WeatherDisplay:10.37,2013-01-08 14:00:00,
2013-01-08 09:05:00,19.8,18.6,30.31,SSE,155,0.0,0.0,95,0.00,CLR,,0.00,WeatherDisplay:10.37,2013-01-08 14:05:00,
2013-01-08 09:10:00,21.0,19.8,30.31,SE,146,0.0,0.0,95,0.00,CLR,,0.00,WeatherDisplay:10.37,2013-01-08 14:10:00,
2013-01-08 09:15:00,22.0,20.8,30.31,SSE,151,0.0,2.0,95,0.00,CLR,,0.00,WeatherDisplay:10.37,2013-01-08 14:15:00,
2013-01-08 09:20:00,23.3,22.1,30.31,SSE,147,0.0,4.0,95,0.00,CLR,,0.00,WeatherDisplay:10.37,2013-01-08 14:20:00,
2013-01-08 09:25:00,24.3,23.1,30.30,SSE,158,0.0,10.0,95,0.00,CLR,,0.00,WeatherDisplay:10.37,2013-01-08 14:25:00,
2013-01-08 09:30:00,25.3,23.9,30.31,SSE,165,0.0,3.0,94,0.00,CLR,,0.00,WeatherDisplay:10.37,2013-01-08 14:30:00,
2013-01-08 09:35:00,26.5,24.4,30.31,SSE,164,0.0,3.0,92,0.00,CLR,,0.00,WeatherDisplay:10.37,2013-01-08 14:35:00,
2013-01-08 09:40:00,27.9,25.3,30.31,SSW,192,0.0,4.0,90,0.00,CLR,,0.00,WeatherDisplay:10.37,2013-01-08 14:40:00,
2013-01-08 09:45:00,28.8,25.7,30.31,SSW,209,0.0,0.0,88,0.00,CLR,,0.00,WeatherDisplay:10.37,2013-01-08 14:45:00,
2013-01-08 09:50:00,29.8,25.8,30.31,SW,217,0.0,3.0,85,0.00,CLR,,0.00,WeatherDisplay:10.37,2013-01-08 14:50:00,
2013-01-08 09:55:00,30.6,26.3,30.31,SSW,207,0.0,1.0,84,0.00,CLR,,0.00,WeatherDisplay:10.37,2013-01-08 14:55:00,
2013-01-08 10:00:00,31.4,26.2,30.31,South,186,0.0,3.0,81,0.00,CLR,,0.00,WeatherDisplay:10.37,2013-01-08 15:00:00,
2013-01-08 10:05:00,32.1,26.7,30.30,SW,230,0.0,3.0,80,0.00,CLR,,0.00,WeatherDisplay:10.37,2013-01-08 15:05:00,
2013-01-08 10:10:00,32.7,26.6,30.30,SW,235,0.0,0.0,78,0.00,CLR,,0.00,WeatherDisplay:10.37,2013-01-08 15:10:00,
2013-01-08 10:15:00,33.2,26.8,30.30,South,189,0.0,3.0,77,0.00,CLR,,0.00,WeatherDisplay:10.37,2013-01-08 15:15:00,
2013-01-08 10:20:00,33.7,26.9,30.30,SSE,168,0.0,5.0,76,0.00,CLR,,0.00,WeatherDisplay:10.37,2013-01-08 15:20:00,
2013-01-08 10:25:00,34.2,27.1,30.29,SSW,205,2.0,5.0,75,0.00,CLR,,0.00,WeatherDisplay:10.37,2013-01-08 15:25:00,
2013-01-08 10:30:00,34.8,27.0,30.29,SSW,209,0.0,2.0,73,0.00,CLR,,0.00,WeatherDisplay:10.37,2013-01-08 15:30:00,
2013-01-08 10:35:00,35.3,27.1,30.29,SSW,196,1.0,5.0,72,0.00,CLR,,0.00,WeatherDisplay:10.37,2013-01-08 15:35:00,
2013-01-08 10:40:00,35.6,27.1,30.29,SW,226,2.0,6.0,71,0.00,CLR,,0.00,WeatherDisplay:10.37,2013-01-08 15:40:00,
2013-01-08 10:45:00,35.9,27.4,30.28,SW,217,0.0,3.0,71,0.00,CLR,,0.00,WeatherDisplay:10.37,2013-01-08 15:45:00,
2013-01-08 10:50:00,36.3,27.5,30.28,SSW,205,3.0,4.0,70,0.00,CLR,,0.00,WeatherDisplay:10.37,2013-01-08 15:50:00,
2013-01-08 10:55:00,37.0,27.7,30.28,SSW,205,1.0,5.0,69,0.00,CLR,,0.00,WeatherDisplay:10.37,2013-01-08 15:55:00,
2013-01-08 11:00:00,37.3,28.1,30.28,SSW,212,3.0,6.0,69,0.00,CLR,,0.00,WeatherDisplay:10.37,2013-01-08 16:00:00,
2013-01-08 11:05:00,37.8,27.5,30.27,SW,223,1.0,4.0,66,0.00,CLR,,0.00,WeatherDisplay:10.37,2013-01-08 16:05:00,
2013-01-08 11:10:00,38.1,27.8,30.27,SSW,208,0.0,4.0,66,0.00,CLR,,0.00,WeatherDisplay:10.37,2013-01-08 16:10:00,
2013-01-08 11:15:00,38.3,27.6,30.27,SW,223,3.0,6.0,65,0.00,CLR,,0.00,WeatherDisplay:10.37,2013-01-08 16:15:00,
2013-01-08 11:20:00,38.6,27.5,30.27,WSW,238,2.0,6.0,64,0.00,CLR,,0.00,WeatherDisplay:10.37,2013-01-08 16:20:00,
2013-01-08 11:25:00,38.8,27.7,30.27,SW,233,2.0,6.0,64,0.00,CLR,,0.00,WeatherDisplay:10.37,2013-01-08 16:25:00,
2013-01-08 11:30:00,39.1,27.6,30.27,SW,222,2.0,6.0,63,0.00,CLR,,0.00,WeatherDisplay:10.37,2013-01-08 16:30:00,
2013-01-08 11:35:00,39.4,28.2,30.27,SW,225,0.0,5.0,64,0.00,CLR,,0.00,WeatherDisplay:10.37,2013-01-08 16:35:00,
2013-01-08 11:40:00,39.5,27.9,30.27,SW,229,0.0,5.0,63,0.00,CLR,,0.00,WeatherDisplay:10.37,2013-01-08 16:40:00,
2013-01-08 11:45:00,39.8,27.1,30.26,SW,214,2.0,7.0,60,0.00,CLR,,0.00,WeatherDisplay:10.37,2013-01-08 16:45:00,
2013-01-08 11:50:00,40.3,27.1,30.26,SW,228,1.0,6.0,59,0.00,CLR,,0.00,WeatherDisplay:10.37,2013-01-08 16:50:00,
2013-01-08 11:55:00,40.6,27.4,30.26,WSW,242,2.0,4.0,59,0.00,CLR,,0.00,WeatherDisplay:10.37,2013-01-08 16:55:00,
2013-01-08 12:00:00,40.8,27.2,30.26,WSW,243,2.0,7.0,58,0.00,CLR,,0.00,WeatherDisplay:10.37,2013-01-08 17:00:00,
2013-01-08 12:05:00,41.1,27.4,30.25,WSW,255,2.0,6.0,58,0.00,CLR,,0.00,WeatherDisplay:10.37,2013-01-08 17:05:00,
2013-01-08 12:10:00,41.3,27.2,30.25,WSW,242,1.0,5.0,57,0.00,CLR,,0.00,WeatherDisplay:10.37,2013-01-08 17:10:00,
2013-01-08 12:15:00,41.5,27.8,30.25,SSW,198,2.0,7.0,58,0.00,CLR,,0.00,WeatherDisplay:10.37,2013-01-08 17:15:00,
2013-01-08 12:20:00,41.6,27.1,30.25,South,189,1.0,5.0,56,0.00,CLR,,0.00,WeatherDisplay:10.37,2013-01-08 17:20:00,
2013-01-08 12:25:00,41.8,27.2,30.25,SSW,205,1.0,5.0,56,0.00,CLR,,0.00,WeatherDisplay:10.37,2013-01-08 17:25:00,
2013-01-08 12:30:00,41.9,26.9,30.25,SW,224,5.0,9.0,55,0.00,CLR,,0.00,WeatherDisplay:10.37,2013-01-08 17:30:00,
2013-01-08 12:35:00,42.0,27.0,30.25,SW,223,2.0,5.0,55,0.00,CLR,,0.00,WeatherDisplay:10.37,2013-01-08 17:35:00,
2013-01-08 12:40:00,42.2,27.2,30.25,SSW,201,0.0,4.0,55,0.00,CLR,,0.00,WeatherDisplay:10.37,2013-01-08 17:40:00,
2013-01-08 12:45:00,42.3,27.7,30.25,SW,229,1.0,4.0,56,0.00,CLR,,0.00,WeatherDisplay:10.37,2013-01-08 17:45:00,
2013-01-08 12:50:00,42.4,27.8,30.25,SSW,210,1.0,8.0,56,0.00,CLR,,0.00,WeatherDisplay:10.37,2013-01-08 17:50:00,
2013-01-08 12:55:00,42.4,28.2,30.25,SSW,209,0.0,2.0,57,0.00,CLR,,0.00,WeatherDisplay:10.37,2013-01-08 17:55:00,
2013-01-08 13:00:00,42.5,27.9,30.25,SW,231,1.0,3.0,56,0.00,CLR,,0.00,WeatherDisplay:10.37,2013-01-08 18:00:00,
2013-01-08 13:05:00,42.6,28.0,30.24,WSW,241,0.0,4.0,56,0.00,CLR,,0.00,WeatherDisplay:10.37,2013-01-08 18:05:00,
2013-01-08 13:10:00,42.6,27.1,30.24,SSW,197,3.0,6.0,54,0.00,CLR,,0.00,WeatherDisplay:10.37,2013-01-08 18:10:00,
2013-01-08 13:15:00,42.7,27.2,30.24,SSW,204,0.0,5.0,54,0.00,CLR,,0.00,WeatherDisplay:10.37,2013-01-08 18:15:00,
2013-01-08 13:20:00,42.8,27.3,30.24,SSW,197,1.0,4.0,54,0.00,CLR,,0.00,WeatherDisplay:10.37,2013-01-08 18:20:00,
2013-01-08 13:25:00,42.9,26.5,30.24,SW,222,2.0,5.0,52,0.00,CLR,,0.00,WeatherDisplay:10.37,2013-01-08 18:25:00,
2013-01-08 13:30:00,42.9,26.9,30.24,SSW,213,1.0,4.0,53,0.00,CLR,,0.00,WeatherDisplay:10.37,2013-01-08 18:30:00,
2013-01-08 13:35:00,42.9,27.4,30.24,SW,221,1.0,4.0,54,0.00,CLR,,0.00,WeatherDisplay:10.37,2013-01-08 18:35:00,
2013-01-08 13:40:00,42.9,27.8,30.24,WSW,245,0.0,4.0,55,0.00,CLR,,0.00,WeatherDisplay:10.37,2013-01-08 18:40:00,
2013-01-08 13:50:00,42.7,28.1,30.24,SW,228,0.0,3.0,56,0.00,CLR,,0.00,WeatherDisplay:10.37,2013-01-08 18:50:00,
2013-01-08 13:55:00,42.6,28.0,30.24,South,191,0.0,3.0,56,0.00,CLR,,0.00,WeatherDisplay:10.37,2013-01-08 18:55:00,
2013-01-08 14:00:00,42.5,27.9,30.24,South,180,0.0,3.0,56,0.00,CLR,,0.00,WeatherDisplay:10.37,2013-01-08 19:00:00,
2013-01-08 14:05:00,42.4,27.8,30.24,SSW,193,0.0,3.0,56,0.01,RA,,0.01,WeatherDisplay:10.37,2013-01-08 19:05:00,
2013-01-08 14:10:00,42.3,28.2,30.24,SSW,194,1.0,4.0,57,0.00,RA,,0.01,WeatherDisplay:10.37,2013-01-08 19:10:00,
2013-01-08 14:15:00,42.1,27.5,30.25,SSW,198,0.0,3.0,56,0.00,CLR,,0.01,WeatherDisplay:10.37,2013-01-08 19:15:00,
2013-01-08 14:20:00,42.0,27.9,30.25,SSW,194,1.0,4.0,57,0.00,CLR,,0.01,WeatherDisplay:10.37,2013-01-08 19:20:00,
2013-01-08 14:25:00,42.0,27.4,30.25,WSW,253,0.0,4.0,56,0.00,CLR,,0.01,WeatherDisplay:10.37,2013-01-08 19:25:00,
2013-01-08 14:30:00,42.1,26.6,30.25,SW,235,1.0,6.0,54,0.00,CLR,,0.01,WeatherDisplay:10.37,2013-01-08 19:30:00,
2013-01-08 14:35:00,42.2,26.7,30.26,SW,229,3.0,5.0,54,0.00,CLR,,0.01,WeatherDisplay:10.37,2013-01-08 19:35:00,
2013-01-08 14:40:00,42.2,27.2,30.25,WSW,238,1.0,5.0,55,0.00,CLR,,0.01,WeatherDisplay:10.37,2013-01-08 19:40:00,
2013-01-08 14:45:00,42.1,26.6,30.26,WSW,244,0.0,4.0,54,0.00,CLR,,0.01,WeatherDisplay:10.37,2013-01-08 19:45:00,
2013-01-08 14:50:00,42.0,27.0,30.26,SW,227,0.0,4.0,55,0.00,CLR,,0.01,WeatherDisplay:10.37,2013-01-08 19:50:00,
2013-01-08 14:55:00,42.0,26.5,30.26,SSW,200,0.0,5.0,54,0.00,CLR,,0.01,WeatherDisplay:10.37,2013-01-08 19:55:00,
2013-01-08 15:00:00,41.9,26.4,30.26,SSW,199,1.0,3.0,54,0.00,CLR,,0.01,WeatherDisplay:10.37,2013-01-08 20:00:00,
2013-01-08 15:05:00,41.8,26.8,30.26,South,191,1.0,5.0,55,0.00,CLR,,0.01,WeatherDisplay:10.37,2013-01-08 20:05:00,
2013-01-08 15:10:00,41.7,27.1,30.26,SSW,192,0.0,3.0,56,0.00,CLR,,0.01,WeatherDisplay:10.37,2013-01-08 20:10:00,
2013-01-08 15:15:00,41.5,27.0,30.26,SW,219,0.0,1.0,56,0.00,CLR,,0.01,WeatherDisplay:10.37,2013-01-08 20:15:00,
2013-01-08 15:20:00,41.3,27.2,30.26,SW,218,0.0,2.0,57,0.00,CLR,,0.01,WeatherDisplay:10.37,2013-01-08 20:20:00,
2013-01-08 15:25:00,40.9,26.8,30.26,South,186,0.0,0.0,57,0.00,CLR,,0.01,WeatherDisplay:10.37,2013-01-08 20:25:00,
2013-01-08 15:30:00,40.7,27.1,30.26,South,182,0.0,4.0,58,0.00,CLR,,0.01,WeatherDisplay:10.37,2013-01-08 20:30:00,
2013-01-08 15:35:00,40.6,27.4,30.26,WSW,240,0.0,4.0,59,0.00,CLR,,0.01,WeatherDisplay:10.37,2013-01-08 20:35:00,
2013-01-08 15:40:00,40.6,27.4,30.26,WSW,254,0.0,3.0,59,0.00,CLR,,0.01,WeatherDisplay:10.37,2013-01-08 20:40:00,
2013-01-08 15:45:00,40.4,27.2,30.26,WSW,255,0.0,0.0,59,0.00,CLR,,0.01,WeatherDisplay:10.37,2013-01-08 20:45:00,
2013-01-08 15:50:00,40.1,26.9,30.26,WSW,256,0.0,0.0,59,0.00,CLR,,0.01,WeatherDisplay:10.37,2013-01-08 20:50:00,
2013-01-08 15:55:00,39.8,27.4,30.26,WSW,248,0.0,0.0,61,0.01,RA,,0.02,WeatherDisplay:10.37,2013-01-08 20:55:00,
2013-01-08 16:00:00,39.4,27.1,30.26,SW,219,0.0,0.0,61,0.00,RA,,0.02,WeatherDisplay:10.37,2013-01-08 21:00:00,
2013-01-08 16:05:00,39.1,26.8,30.26,SSW,202,0.0,0.0,61,0.00,CLR,,0.02,WeatherDisplay:10.37,2013-01-08 21:05:00,
2013-01-08 16:10:00,38.9,27.0,30.26,SSW,202,0.0,0.0,62,0.00,CLR,,0.02,WeatherDisplay:10.37,2013-01-08 21:10:00,
2013-01-08 16:15:00,38.5,27.4,30.26,SSW,201,0.0,0.0,64,0.00,CLR,,0.02,WeatherDisplay:10.37,2013-01-08 21:15:00,
2013-01-08 16:20:00,38.0,27.2,30.26,SSW,201,0.0,0.0,65,0.00,CLR,,0.02,WeatherDisplay:10.37,2013-01-08 21:20:00,
2013-01-08 16:25:00,37.5,27.9,30.26,SSW,201,0.0,0.0,68,0.00,CLR,,0.02,WeatherDisplay:10.37,2013-01-08 21:25:00,
2013-01-08 16:30:00,36.8,27.6,30.26,SSW,201,0.0,0.0,69,0.00,CLR,,0.02,WeatherDisplay:10.37,2013-01-08 21:30:00,
2013-01-08 16:35:00,36.2,27.4,30.26,SSW,201,0.0,0.0,70,0.00,CLR,,0.02,WeatherDisplay:10.37,2013-01-08 21:35:00,
2013-01-08 16:40:00,35.7,27.6,30.27,SSW,201,0.0,0.0,72,0.00,CLR,,0.02,WeatherDisplay:10.37,2013-01-08 21:40:00,
2013-01-08 16:45:00,35.2,27.4,30.27,SSW,201,0.0,0.0,73,0.00,CLR,,0.02,WeatherDisplay:10.37,2013-01-08 21:45:00,
2013-01-08 16:50:00,34.7,27.2,30.27,SSW,201,0.0,0.0,74,0.00,CLR,,0.02,WeatherDisplay:10.37,2013-01-08 21:50:00,
2013-01-08 16:55:00,34.2,27.4,30.27,SSW,201,0.0,0.0,76,0.00,CLR,,0.02,WeatherDisplay:10.37,2013-01-08 21:55:00,
2013-01-08 17:00:00,33.7,27.3,30.27,SSW,201,0.0,0.0,77,0.00,CLR,,0.02,WeatherDisplay:10.37,2013-01-08 22:00:00,
2013-01-08 17:05:00,33.3,27.2,30.28,SSW,201,0.0,0.0,78,0.00,CLR,,0.02,WeatherDisplay:10.37,2013-01-08 22:05:00,
2013-01-08 17:10:00,32.9,27.4,30.28,SSW,201,0.0,0.0,80,0.00,CLR,,0.02,WeatherDisplay:10.37,2013-01-08 22:10:00,
2013-01-08 17:15:00,32.5,27.3,30.28,SSW,201,0.0,0.0,81,0.00,CLR,,0.02,WeatherDisplay:10.37,2013-01-08 22:15:00,
2013-01-08 17:20:00,32.2,27.0,30.28,SSW,201,0.0,0.0,81,0.00,CLR,,0.02,WeatherDisplay:10.37,2013-01-08 22:20:00,
2013-01-08 17:25:00,31.8,26.7,30.28,SSW,201,0.0,0.0,81,0.00,CLR,,0.02,WeatherDisplay:10.37,2013-01-08 22:25:00,
2013-01-08 17:30:00,31.6,26.4,30.28,SSW,201,0.0,0.0,81,0.00,CLR,,0.02,WeatherDisplay:10.37,2013-01-08 22:30:00,
2013-01-08 17:35:00,31.4,26.2,30.28,SSW,201,0.0,0.0,81,0.00,CLR,,0.02,WeatherDisplay:10.37,2013-01-08 22:35:00,
2013-01-08 17:40:00,31.1,26.3,30.28,SSW,201,0.0,0.0,82,0.00,CLR,,0.02,WeatherDisplay:10.37,2013-01-08 22:40:00,
2013-01-08 17:45:00,30.9,26.0,30.29,SSW,201,0.0,0.0,82,0.00,CLR,,0.02,WeatherDisplay:10.37,2013-01-08 22:45:00,
2013-01-08 17:50:00,30.6,26.1,30.29,SSW,201,0.0,0.0,83,0.00,CLR,,0.02,WeatherDisplay:10.37,2013-01-08 22:50:00,
2013-01-08 17:55:00,30.4,25.8,30.29,SSW,201,0.0,0.0,83,0.00,CLR,,0.02,WeatherDisplay:10.37,2013-01-08 22:55:00,
2013-01-08 18:00:00,30.2,25.6,30.29,SSW,201,0.0,0.0,83,0.00,CLR,,0.02,WeatherDisplay:10.37,2013-01-08 23:00:00,
2013-01-08 18:05:00,29.9,25.7,30.30,SSW,201,0.0,0.0,84,0.00,CLR,,0.02,WeatherDisplay:10.37,2013-01-08 23:05:00,
2013-01-08 18:10:00,29.6,25.9,30.30,SSW,201,0.0,0.0,86,0.00,CLR,,0.02,WeatherDisplay:10.37,2013-01-08 23:10:00,
2013-01-08 18:15:00,29.3,25.6,30.30,SSW,201,0.0,0.0,86,0.00,CLR,,0.02,WeatherDisplay:10.37,2013-01-08 23:15:00,
2013-01-08 18:20:00,29.1,25.4,30.30,SSW,201,0.0,0.0,86,0.00,CLR,,0.02,WeatherDisplay:10.37,2013-01-08 23:20:00,
2013-01-08 18:25:00,28.9,25.3,30.30,SSW,201,0.0,0.0,86,0.00,CLR,,0.02,WeatherDisplay:10.37,2013-01-08 23:25:00,
2013-01-08 18:30:00,28.8,25.4,30.30,SSW,201,0.0,0.0,87,0.00,CLR,,0.02,WeatherDisplay:10.37,2013-01-08 23:30:00,
2013-01-08 18:35:00,28.7,25.3,30.30,SSW,201,0.0,0.0,87,0.00,CLR,,0.02,WeatherDisplay:10.37,2013-01-08 23:35:00,
2013-01-08 18:40:00,28.5,25.2,30.31,SSW,201,0.0,0.0,87,0.00,CLR,,0.02,WeatherDisplay:10.37,2013-01-08 23:40:00,
2013-01-08 18:45:00,28.4,25.0,30.31,SSW,201,0.0,0.0,87,0.00,CLR,,0.02,WeatherDisplay:10.37,2013-01-08 23:45:00,
2013-01-08 18:50:00,28.3,24.9,30.31,SSW,201,0.0,0.0,87,0.00,CLR,,0.02,WeatherDisplay:10.37,2013-01-08 23:50:00,
2013-01-08 18:55:00,28.1,24.5,30.31,SE,145,0.0,0.0,86,0.00,CLR,,0.02,WeatherDisplay:10.37,2013-01-08 23:55:00,
2013-01-08 19:00:00,28.0,24.6,30.31,East,89,0.0,0.0,87,0.00,CLR,,0.02,WeatherDisplay:10.37,2013-01-09 00:00:00,
2013-01-08 19:05:00,27.8,24.5,30.32,East,89,0.0,0.0,87,0.00,CLR,,0.02,WeatherDisplay:10.37,2013-01-09 00:05:00,
2013-01-08 19:10:00,27.7,24.6,30.32,East,90,0.0,0.0,88,0.00,CLR,,0.02,WeatherDisplay:10.37,2013-01-09 00:10:00,
2013-01-08 19:15:00,27.6,24.5,30.32,East,91,0.0,0.0,88,0.00,CLR,,0.02,WeatherDisplay:10.37,2013-01-09 00:15:00,
2013-01-08 19:20:00,27.5,24.4,30.32,East,91,0.0,0.0,88,0.00,CLR,,0.02,WeatherDisplay:10.37,2013-01-09 00:20:00,
2013-01-08 19:25:00,27.3,24.2,30.32,East,91,0.0,0.0,88,0.00,CLR,,0.02,WeatherDisplay:10.37,2013-01-09 00:25:00,
2013-01-08 19:30:00,27.1,24.0,30.33,East,91,0.0,0.0,88,0.00,CLR,,0.02,WeatherDisplay:10.37,2013-01-09 00:30:00,
2013-01-08 19:35:00,27.0,23.9,30.33,East,91,0.0,0.0,88,0.00,CLR,,0.02,WeatherDisplay:10.37,2013-01-09 00:35:00,
2013-01-08 19:40:00,26.7,23.6,30.33,East,91,0.0,0.0,88,0.00,CLR,,0.02,WeatherDisplay:10.37,2013-01-09 00:40:00,
2013-01-08 19:45:00,26.6,23.5,30.33,East,91,0.0,0.0,88,0.00,CLR,,0.02,WeatherDisplay:10.37,2013-01-09 00:45:00,
2013-01-08 19:50:00,26.4,23.6,30.33,East,91,0.0,0.0,89,0.00,CLR,,0.02,WeatherDisplay:10.37,2013-01-09 00:50:00,
2013-01-08 19:55:00,26.2,23.4,30.33,East,91,0.0,0.0,89,0.00,CLR,,0.02,WeatherDisplay:10.37,2013-01-09 00:55:00,
2013-01-08 20:00:00,26.1,23.3,30.33,East,91,0.0,0.0,89,0.00,CLR,,0.02,WeatherDisplay:10.37,2013-01-09 01:00:00,
2013-01-08 20:05:00,26.0,23.2,30.34,East,91,0.0,0.0,89,0.00,CLR,,0.02,WeatherDisplay:10.37,2013-01-09 01:05:00,
2013-01-08 20:10:00,25.9,23.4,30.34,East,91,0.0,0.0,90,0.00,CLR,,0.02,WeatherDisplay:10.37,2013-01-09 01:10:00,
2013-01-08 20:15:00,25.7,23.2,30.34,East,91,0.0,0.0,90,0.00,CLR,,0.02,WeatherDisplay:10.37,2013-01-09 01:15:00,
2013-01-08 20:20:00,25.6,23.1,30.34,East,91,0.0,0.0,90,0.00,CLR,,0.02,WeatherDisplay:10.37,2013-01-09 01:20:00,
2013-01-08 20:25:00,25.4,22.9,30.34,East,91,0.0,0.0,90,0.00,CLR,,0.02,WeatherDisplay:10.37,2013-01-09 01:25:00,
2013-01-08 20:30:00,25.3,22.8,30.34,East,91,0.0,0.0,90,0.00,CLR,,0.02,WeatherDisplay:10.37,2013-01-09 01:30:00,
2013-01-08 20:35:00,25.1,22.3,30.34,East,91,0.0,0.0,89,0.00,CLR,,0.02,WeatherDisplay:10.37,2013-01-09 01:35:00,
2013-01-08 20:40:00,25.0,22.2,30.34,East,91,0.0,0.0,89,0.00,CLR,,0.02,WeatherDisplay:10.37,2013-01-09 01:40:00,
2013-01-08 20:45:00,24.8,22.3,30.34,East,91,0.0,0.0,90,0.00,CLR,,0.02,WeatherDisplay:10.37,2013-01-09 01:45:00,
2013-01-08 20:50:00,24.7,22.2,30.34,East,91,0.0,0.0,90,0.00,CLR,,0.02,WeatherDisplay:10.37,2013-01-09 01:50:00,
2013-01-08 20:55:00,24.6,22.1,30.34,East,91,0.0,0.0,90,0.00,CLR,,0.02,WeatherDisplay:10.37,2013-01-09 01:55:00,
2013-01-08 21:00:00,24.5,22.0,30.34,East,91,0.0,0.0,90,0.00,CLR,,0.02,WeatherDisplay:10.37,2013-01-09 02:00:00,
2013-01-08 21:05:00,24.4,22.2,30.34,East,91,0.0,0.0,91,0.00,CLR,,0.02,WeatherDisplay:10.37,2013-01-09 02:05:00,
2013-01-08 21:10:00,24.4,22.1,30.34,East,91,0.0,0.0,91,0.00,CLR,,0.02,WeatherDisplay:10.37,2013-01-09 02:10:00,
2013-01-08 21:15:00,24.3,22.1,30.34,East,91,0.0,0.0,91,0.00,CLR,,0.02,WeatherDisplay:10.37,2013-01-09 02:15:00,
2013-01-08 21:20:00,24.3,22.1,30.34,East,91,0.0,0.0,91,0.00,CLR,,0.02,WeatherDisplay:10.37,2013-01-09 02:20:00,
2013-01-08 21:25:00,24.2,22.0,30.34,East,91,0.0,0.0,91,0.00,CLR,,0.02,WeatherDisplay:10.37,2013-01-09 02:25:00,
2013-01-08 21:30:00,24.2,22.0,30.34,East,91,0.0,0.0,91,0.00,CLR,,0.02,WeatherDisplay:10.37,2013-01-09 02:30:00,
2013-01-08 21:35:00,24.2,22.0,30.34,East,91,0.0,0.0,91,0.00,CLR,,0.02,WeatherDisplay:10.37,2013-01-09 02:35:00,
2013-01-08 21:40:00,24.1,21.9,30.34,East,91,0.0,0.0,91,0.00,CLR,,0.02,WeatherDisplay:10.37,2013-01-09 02:40:00,
2013-01-08 21:45:00,24.0,21.8,30.34,East,91,0.0,0.0,91,0.00,CLR,,0.02,WeatherDisplay:10.37,2013-01-09 02:45:00,
2013-01-08 21:50:00,24.0,22.0,30.34,East,91,0.0,0.0,92,0.00,CLR,,0.02,WeatherDisplay:10.37,2013-01-09 02:50:00,
2013-01-08 21:55:00,24.0,22.0,30.34,East,91,0.0,0.0,92,0.00,CLR,,0.02,WeatherDisplay:10.37,2013-01-09 02:55:00,
2013-01-08 22:00:00,23.9,21.7,30.34,East,91,0.0,0.0,91,0.00,CLR,,0.02,WeatherDisplay:10.37,2013-01-09 03:00:00,
2013-01-08 22:05:00,23.9,21.9,30.34,East,91,0.0,0.0,92,0.00,CLR,,0.02,WeatherDisplay:10.37,2013-01-09 03:05:00,
2013-01-08 22:10:00,23.9,21.7,30.34,East,91,0.0,0.0,91,0.00,CLR,,0.02,WeatherDisplay:10.37,2013-01-09 03:10:00,
2013-01-08 22:15:00,23.8,21.6,30.34,East,91,0.0,0.0,91,0.00,CLR,,0.02,WeatherDisplay:10.37,2013-01-09 03:15:00,
2013-01-08 22:20:00,23.7,21.7,30.34,East,91,0.0,0.0,92,0.00,CLR,,0.02,WeatherDisplay:10.37,2013-01-09 03:20:00,
2013-01-08 22:25:00,23.6,21.4,30.34,East,91,0.0,0.0,91,0.00,CLR,,0.02,WeatherDisplay:10.37,2013-01-09 03:25:00,
2013-01-08 22:30:00,23.6,21.6,30.34,East,91,0.0,0.0,92,0.00,CLR,,0.02,WeatherDisplay:10.37,2013-01-09 03:30:00,
2013-01-08 22:35:00,23.5,21.3,30.34,East,91,0.0,0.0,91,0.00,CLR,,0.02,WeatherDisplay:10.37,2013-01-09 03:35:00,
2013-01-08 22:40:00,23.5,21.3,30.34,East,91,0.0,0.0,91,0.00,CLR,,0.02,WeatherDisplay:10.37,2013-01-09 03:40:00,
2013-01-08 22:45:00,23.4,21.4,30.33,East,91,0.0,0.0,92,0.00,CLR,,0.02,WeatherDisplay:10.37,2013-01-09 03:45:00,
2013-01-08 22:50:00,23.3,21.3,30.34,East,91,0.0,0.0,92,0.00,CLR,,0.02,WeatherDisplay:10.37,2013-01-09 03:50:00,
2013-01-08 22:55:00,23.3,21.3,30.34,East,91,0.0,0.0,92,0.00,CLR,,0.02,WeatherDisplay:10.37,2013-01-09 03:55:00,
2013-01-08 23:00:00,23.3,21.3,30.34,East,91,0.0,0.0,92,0.00,CLR,,0.02,WeatherDisplay:10.37,2013-01-09 04:00:00,
2013-01-08 23:05:00,23.2,21.2,30.34,East,91,0.0,0.0,92,0.00,CLR,,0.02,WeatherDisplay:10.37,2013-01-09 04:05:00,
2013-01-08 23:10:00,23.1,21.1,30.34,East,91,0.0,0.0,92,0.00,CLR,,0.02,WeatherDisplay:10.37,2013-01-09 04:10:00,
2013-01-08 23:15:00,23.1,21.1,30.35,East,91,0.0,0.0,92,0.00,CLR,,0.02,WeatherDisplay:10.37,2013-01-09 04:15:00,
2013-01-08 23:20:00,23.0,21.0,30.35,East,91,0.0,0.0,92,0.00,CLR,,0.02,WeatherDisplay:10.37,2013-01-09 04:20:00,
2013-01-08 23:25:00,22.9,20.9,30.35,East,91,0.0,0.0,92,0.00,CLR,,0.02,WeatherDisplay:10.37,2013-01-09 04:25:00,
2013-01-08 23:30:00,22.9,20.9,30.35,East,91,0.0,0.0,92,0.00,CLR,,0.02,WeatherDisplay:10.37,2013-01-09 04:30:00,
2013-01-08 23:35:00,22.9,20.9,30.35,East,91,0.0,0.0,92,0.00,CLR,,0.02,WeatherDisplay:10.37,2013-01-09 04:35:00,
2013-01-08 23:40:00,22.8,20.8,30.35,East,91,0.0,0.0,92,0.00,CLR,,0.02,WeatherDisplay:10.37,2013-01-09 04:40:00,
2013-01-08 23:45:00,22.7,20.7,30.35,East,91,0.0,0.0,92,0.00,CLR,,0.02,WeatherDisplay:10.37,2013-01-09 04:45:00,
2013-01-08 23:50:00,22.6,20.6,30.35,East,91,0.0,0.0,92,0.00,CLR,,0.02,WeatherDisplay:10.37,2013-01-09 04:50:00,
2013-01-08 23:55:00,22.6,20.6,30.36,East,91,0.0,0.0,92,0.00,CLR,,0.02,WeatherDisplay:10.37,2013-01-09 04:55:00,